Flag for Kazakhstan Weather past 2 weeks in Shymkent, Kazakhstan

Now
79 °F

Clear.


Feels Like: 78 °F
Forecast: 68 / 96 °F
Wind: 3 mph from East

Location: Shymkent Airport

Current Time: Jul 29, 2015 at 11:01:53 PM

Latest Report: Jul 29, 2015 at 10:30 PM


Visibility: 10 mi

Pressure: 29.77 "Hg (28.10 "Hg at 506m altitude)

Humidity: 21%

Dew point: 36 °F

Location of ShymkentLocation

Historic Weather in Shymkent — Graph

°F

Shymkent temperature yesterday

Maximum temperature yesterday: 97 °F (at 5:00 PM)
Minimum temperature yesterday: 72 °F (at 6:30 AM)
Average temperature yesterday: 84 °F

Past Weeks' High & Low Weather Summary

 TemperatureHumidityPressure
High111 °F (Jul 16, 4:30 PM)83% (Jul 22, 6:00 AM)29.92 "Hg (Jul 22, 6:00 AM)
Low64 °F (Jul 26, 6:30 AM)7% (Jul 15, 5:30 PM)29.47 "Hg (Jul 16, 4:30 AM)
Average88 °F25%29.69 "Hg
* Reported Jul 14 10:00 PM — Jul 29 10:00 PM, Shymkent, Weather by CustomWeather, © 2015

Note: Actual official high and low records may vary slightly from our data, if they occured in-between our weather recording intervals... More about our weather records

Advertising

Shymkent weather history for previous 24 hours

 ConditionsComfort  
Time TempWeatherWind HumidityBarometerVisibility
10:00 PM
Wed, Jul 29
81 °FClear.1 mph18%29.77 "Hg10 mi
9:30 PM81 °FClear.3 mph18%29.77 "Hg10 mi
9:00 PM82 °FClear.3 mph20%29.74 "Hg10 mi
8:30 PM84 °FSunny.3 mph20%29.74 "Hg10 mi
8:00 PM88 °FSunny.6 mph18%29.74 "Hg10 mi
7:30 PM90 °FPassing clouds.6 mph16%29.71 "HgN/A
7:00 PM91 °FPassing clouds.6 mph15%29.71 "HgN/A
6:30 PM91 °FPassing clouds.6 mph13%29.71 "HgN/A
6:00 PM91 °FSunny.10 mph14%29.71 "Hg10 mi
5:30 PM93 °FSunny.6 mph11%29.71 "Hg10 mi
5:00 PM93 °FSunny.15 mph14%29.71 "Hg10 mi
4:30 PM93 °FSunny.15 mph13%29.71 "Hg10 mi
4:00 PM93 °FPassing clouds.8 mph13%29.71 "HgN/A
3:30 PM93 °FPassing clouds.13 mph12%29.74 "HgN/A
3:00 PM93 °FPassing clouds.13 mph13%29.74 "HgN/A
2:30 PM93 °FPassing clouds.10 mph13%29.74 "HgN/A
2:00 PM93 °FPassing clouds.10 mph14%29.74 "HgN/A
1:30 PM93 °FPassing clouds.10 mph14%29.74 "HgN/A
1:00 PM91 °FSunny.8 mph15%29.74 "Hg10 mi
12:30 PM91 °FSunny.10 mph13%29.74 "Hg10 mi
12:00 PM90 °FSunny.8 mph16%29.77 "Hg10 mi
11:30 AM88 °FPassing clouds.8 mph17%29.77 "HgN/A
11:00 AM88 °FPassing clouds.8 mph18%29.77 "HgN/A
10:30 AM86 °FPassing clouds.8 mph19%29.77 "HgN/A
10:00 AM84 °FSunny.6 mph23%29.77 "Hg10 mi
9:30 AM90 °FPassing clouds.6 mph15%29.77 "HgN/A
9:00 AM84 °FPassing clouds.3 mph22%29.77 "HgN/A
8:30 AM79 °FPassing clouds.3 mph26%29.77 "HgN/A
8:00 AM75 °FSunny.6 mph29%29.77 "Hg10 mi
7:30 AM72 °FSunny.3 mph33%29.77 "Hg10 mi
7:00 AM66 °FSunny.3 mph40%29.77 "Hg10 mi
6:30 AM64 °FSunny.1 mph40%29.74 "Hg10 mi
6:00 AM64 °FClear.1 mph40%29.74 "Hg10 mi
5:30 AM66 °FClear.8 mph37%29.74 "Hg10 mi
5:00 AM66 °FClear.10 mph37%29.74 "Hg10 mi
4:30 AM64 °FClear.8 mph40%29.74 "Hg10 mi
3:00 AM66 °FClear.6 mph43%29.74 "Hg10 mi
2:30 AM68 °FClear.6 mph40%29.74 "Hg10 mi
2:00 AM68 °FClear.6 mph38%29.74 "Hg10 mi
1:30 AM70 °FClear.3 mph35%29.74 "Hg10 mi
1:00 AM68 °FClear.6 mph40%29.74 "Hg10 mi
12:30 AM70 °FClear.3 mph35%29.74 "Hg10 mi
12:00 AM72 °FClear.1 mph31%29.74 "Hg10 mi
11:30 PM
Tue, Jul 28
72 °FClear.No wind31%29.74 "Hg10 mi
11:00 PM73 °FClear.1 mph29%29.74 "Hg10 mi
Weather by CustomWeather, © 2015

See weather overviewHow to use our weather pages